Hourly Data Report for October 23, 2015

All times are specified in Local Standard Time (LST). Add 1 hour to adjust for Daylight Saving Time where and when it is observed.

PANGNIRTUNG
NUNAVUT

66°08'36.300" N
65°42'40.500" W
22.60 m
2403049
71826
WXP

Download Data

Hourly Data (October 2015)
Hourly Data Report for October 23, 2015
Temp Definition
°C
Dew Point Temp Definition
°C
Rel Hum Definition
%
Wind Dir Definition
10's deg

Wind Spd Definition
km/h
Visibility Definition
km
Stn Press Definition
kPa
Hmdx Definition


Wind Chill Definition


Weather Definition


TIME
00:00 -8.7 -14.0 65 26 27   101.14   -17 LegendNANA
01:00 -9.7 -14.7 67 33 5   101.17   -13 LegendNANA
02:00 -9.8 -14.5 69 1 10   101.21   -15 LegendNANA
03:00 -9.4 -14.3 67 30 15   101.22   -16 LegendNANA
04:00 -9.1 -14.0 67 28 23   101.20   -17 LegendNANA
05:00 -9.5 -14.0 70 28 19   101.21   -17 LegendNANA
06:00 -9.3 -14.4 66 26 16   101.23   -16 LegendNANA
07:00 -9.4 -14.2 68 26 10   101.27   -15 LegendNANA
08:00 -9.4 -14.5 66 28 14   101.21   -16 LegendNANA
09:00 -9.4 -14.1 68 31 15   101.21   -16 LegendNANA
10:00 -8.8 -13.9 67 30 11   101.20   -14 LegendNANA
11:00 -8.5 -13.9 65 31 9   101.18   -13 LegendNANA
12:00 -8.8 -13.7 67 31 10   101.15   -14 LegendNANA
13:00 -8.3 -13.2 68 33 14   101.13   -14 LegendNANA
14:00 -8.4 -13.2 68 9 4   101.08   -11 LegendNANA
15:00 -8.9 -13.1 71 24 7   101.01   -13 LegendNANA
16:00 -9.6 -13.6 73 17 3   101.00   -11 LegendNANA
17:00 -9.4 -13.5 72 13 4   100.94   -12 LegendNANA
18:00 -8.5 -12.9 70 22 3   100.88   -10 LegendNANA
19:00 -9.9 -14.1 71 12 12   100.81   -16 LegendNANA
20:00 -9.7 -13.9 71 12 8   100.76   -14 LegendNANA
21:00 -10.6 -14.5 73 10 10   100.70   -16 LegendNANA
22:00 -10.4 -13.9 76 7 13   100.61   -17 LegendNANA
23:00 -10.2 -13.8 74 11 11   100.56   -16 LegendNANA

Notes on Data Quality.

Legend

  • E = Estimated
  • M = Missing
  • NA = Not Available
  • ‡ = Partner data that is not subject to review by the National Climate Archives
Date modified: